Ionia, MI

6:24 PM EST on December 08, 2016 (GMT -0500)
Ionia

Weather History for KY70 - May, 2014

Change the Weather History Date:

Tuesday, May 20, 2014

  Actual Average (KGRR) Record (KGRR)
Temperature  
Mean Temperature 65 °F -  
Max Temperature 79 °F 71 °F 92 °F (1977)
Min Temperature 51 °F 47 °F 30 °F (2002)
Growing Degree Days 15 (Base 50)    
Moisture  
Dew Point 53 °F    
Average Humidity 68    
Maximum Humidity 85    
Minimum Humidity 52    
Precipitation  
Precipitation 0.12 in - - ()
Sea Level Pressure  
Sea Level Pressure 29.94 in    
Wind  
Wind Speed 10 mph (SSE)    
Max Wind Speed 17 mph    
Max Gust Speed 23 mph    
Visibility 10 miles    
Events Rain    
Averages and records for this station are not official NWS values.
T = Trace of Precipitation, MM = Missing Value Source: NWS Daily Summary

Daily Weather History Graph

Daily Weather History Graph

Search for Another Location

Airport or City:

Trip Planner

Search our weather history database for the weather conditions in past years. The results will help you decide how hot, cold, wet, or windy it might be!

Date:

Astronomy

May. 20, 2014 Rise Set
Actual Time 6:12 AM EDT 9:01 PM EDT
Civil Twilight 5:39 AM EDT 9:35 PM EDT
Nautical Twilight 4:57 AM EDT 10:17 PM EDT
Astronomical Twilight 4:08 AM EDT 11:05 PM EDT
Moon 1:27 AM EDT (5/20) 12:22 PM EDT (5/20)
Length of Visible Light 15h 55m
Length of Day
14h 49m
Waning Gibbous, 60% of the Moon is Illuminated
May 20
Waning Gibbous
May 21
Last Quarter
May 28
New
Jun 5
First Quarter
Jun 13
Full

Hourly Weather History & Observations

Time (EDT) Temp. Dew Point Humidity Pressure Visibility Wind Dir Wind Speed Gust Speed Precip Events Conditions
12:14 AM 53.2 °F 45.9 °F 76% 30.15 in 10.0 mi East 9.2 mph - 0.01 in Rain Rain
12:34 AM 52.0 °F 46.8 °F 82% 30.10 in 10.0 mi East 17.3 mph 20.7 mph 0.04 in Rain Rain
12:54 AM 52.7 °F 45.9 °F 78% 30.13 in 10.0 mi East 10.4 mph 18.4 mph 0.06 in   Mostly Cloudy
1:13 AM 52.9 °F 45.9 °F 77% 30.15 in 10.0 mi SE 8.1 mph - N/A   Mostly Cloudy
1:34 AM 52.7 °F 46.6 °F 80% 30.13 in 10.0 mi SE 10.4 mph - N/A   Mostly Cloudy
2:13 AM 52.7 °F 45.9 °F 78% 30.09 in 10.0 mi ESE 13.8 mph - N/A   Overcast
2:34 AM 53.1 °F 45.5 °F 75% 30.06 in 10.0 mi SE 16.1 mph 20.7 mph N/A   Overcast
2:54 AM 53.2 °F 45.7 °F 76% 30.05 in 10.0 mi SE 12.7 mph 18.4 mph N/A   Overcast
3:13 AM 53.8 °F 45.5 °F 74% 30.05 in 10.0 mi ESE 11.5 mph - N/A   Overcast
3:34 AM 54.1 °F 45.0 °F 71% 30.05 in 10.0 mi ESE 9.2 mph - N/A   Overcast
3:54 AM 54.0 °F 45.3 °F 73% 30.05 in 10.0 mi ESE 8.1 mph - N/A   Overcast
4:13 AM 54.1 °F 44.8 °F 71% 30.04 in 10.0 mi ESE 10.4 mph - N/A   Overcast
4:34 AM 54.0 °F 44.8 °F 71% 30.04 in 10.0 mi ESE 9.2 mph - N/A   Overcast
4:54 AM 54.0 °F 44.6 °F 71% 30.02 in 10.0 mi SE 15.0 mph 19.6 mph N/A   Overcast
5:14 AM 53.1 °F 45.0 °F 74% 30.01 in 10.0 mi ESE 12.7 mph 21.9 mph N/A   Light Drizzle
5:34 AM 53.6 °F 44.6 °F 72% 30.00 in 10.0 mi ESE 9.2 mph - N/A   Overcast
5:54 AM 53.2 °F 45.0 °F 73% 30.00 in 10.0 mi ESE 12.7 mph - N/A   Light Drizzle
6:14 AM 53.6 °F 44.8 °F 72% 29.99 in 10.0 mi ESE 12.7 mph 18.4 mph N/A Rain Light Rain
6:34 AM 52.7 °F 46.2 °F 79% 30.01 in 10.0 mi SE 5.8 mph - 0.01 in Rain Rain
6:54 AM 51.6 °F 47.3 °F 85% 30.00 in 10.0 mi SE 9.2 mph - 0.05 in Rain Light Rain
7:14 AM 52.2 °F 47.1 °F 83% 29.99 in 10.0 mi SSE 12.7 mph - N/A Rain Light Rain
7:34 AM 52.2 °F 47.5 °F 84% 29.99 in 10.0 mi SSE 8.1 mph - 0.01 in Rain Rain
7:54 AM 52.3 °F 47.5 °F 84% 29.97 in 10.0 mi SSE 10.4 mph - 0.01 in   Overcast
8:14 AM 53.4 °F 47.3 °F 80% 29.96 in 10.0 mi SE 10.4 mph - N/A   Overcast
8:34 AM 54.5 °F 47.5 °F 77% 29.96 in 10.0 mi SSE 12.7 mph - N/A   Overcast
8:54 AM 56.3 °F 46.9 °F 71% 29.95 in 10.0 mi South 17.3 mph 23.0 mph N/A   Overcast
9:14 AM 57.2 °F 46.6 °F 68% 29.96 in 10.0 mi South 12.7 mph 20.7 mph N/A   Overcast
9:34 AM 57.4 °F 47.1 °F 69% 29.94 in 10.0 mi South 13.8 mph 21.9 mph N/A   Overcast
9:54 AM 58.5 °F 47.5 °F 67% 29.93 in 10.0 mi South 10.4 mph - N/A   Mostly Cloudy
10:14 AM 60.6 °F 48.4 °F 64% 29.94 in 10.0 mi South 9.2 mph 17.3 mph N/A   Mostly Cloudy
10:34 AM 61.7 °F 48.7 °F 62% 29.93 in 10.0 mi South 16.1 mph 21.9 mph N/A   Scattered Clouds
10:54 AM 63.3 °F 49.3 °F 60% 29.92 in 10.0 mi South 16.1 mph 19.6 mph N/A   Clear
11:14 AM 65.3 °F 50.5 °F 59% 29.91 in 10.0 mi South 16.1 mph 21.9 mph N/A   Mostly Cloudy
11:34 AM 65.5 °F 51.4 °F 60% 29.91 in 10.0 mi South 9.2 mph - N/A   Overcast
11:54 AM 66.9 °F 52.7 °F 60% 29.91 in 10.0 mi South 11.5 mph - N/A   Overcast
12:14 PM 68.0 °F 53.4 °F 60% 29.90 in 10.0 mi SSW 12.7 mph - N/A   Mostly Cloudy
12:54 PM 70.7 °F 54.9 °F 57% 29.89 in 10.0 mi SSW 10.4 mph - N/A   Clear
1:14 PM 72.3 °F 55.9 °F 56% 29.89 in 10.0 mi SSW 8.1 mph - N/A   Clear
1:34 PM 73.0 °F 55.9 °F 55% 29.89 in 10.0 mi SW 10.4 mph - N/A   Scattered Clouds
1:54 PM 73.8 °F 57.0 °F 56% 29.89 in 10.0 mi SSW 8.1 mph - N/A   Mostly Cloudy
2:14 PM 74.1 °F 56.8 °F 55% 29.88 in 10.0 mi SSW 6.9 mph - N/A   Overcast
2:34 PM 75.0 °F 57.9 °F 55% 29.88 in 10.0 mi SW 9.2 mph - N/A   Overcast
2:54 PM 75.7 °F 58.3 °F 55% 29.88 in 10.0 mi SSW 8.1 mph - N/A   Overcast
3:14 PM 76.1 °F 58.3 °F 54% 29.87 in 10.0 mi SW 8.1 mph - N/A   Overcast
3:34 PM 76.1 °F 58.3 °F 54% 29.87 in 10.0 mi South 11.5 mph - N/A   Overcast
3:54 PM 77.0 °F 58.3 °F 52% 29.87 in 10.0 mi SSW 9.2 mph - N/A   Mostly Cloudy
4:14 PM 77.2 °F 59.4 °F 54% 29.86 in 10.0 mi SW 8.1 mph - N/A   Overcast
4:34 PM 77.2 °F 59.0 °F 53% 29.86 in 10.0 mi SSW 10.4 mph - N/A   Overcast
4:54 PM 78.3 °F 59.5 °F 52% 29.86 in 10.0 mi SSW 9.2 mph - N/A   Overcast
5:14 PM 79.3 °F 60.4 °F 52% 29.85 in 10.0 mi SW 8.1 mph - N/A   Scattered Clouds
5:54 PM 79.0 °F 61.2 °F 54% 29.86 in 10.0 mi West 15.0 mph - N/A   Scattered Clouds
6:14 PM 79.2 °F 61.0 °F 54% 29.86 in 10.0 mi West 11.5 mph - N/A   Scattered Clouds
6:34 PM 78.3 °F 60.4 °F 54% 29.86 in 10.0 mi West 15.0 mph 18.4 mph N/A   Scattered Clouds
6:54 PM 77.9 °F 60.4 °F 55% 29.86 in 10.0 mi WNW 12.7 mph - N/A   Scattered Clouds
7:14 PM 77.0 °F 60.6 °F 57% 29.86 in 10.0 mi WNW 6.9 mph - N/A   Scattered Clouds
7:34 PM 76.5 °F 60.8 °F 58% 29.85 in 10.0 mi WNW 9.2 mph - N/A   Mostly Cloudy
7:53 PM 76.1 °F 60.8 °F 59% 29.86 in 10.0 mi WNW 5.8 mph - N/A   Scattered Clouds
8:14 PM 74.8 °F 60.8 °F 62% 29.86 in 10.0 mi WNW 6.9 mph - N/A   Scattered Clouds
8:33 PM 74.3 °F 60.3 °F 61% 29.86 in 10.0 mi NW 3.5 mph - N/A   Clear
8:54 PM 73.6 °F 60.1 °F 63% 29.87 in 10.0 mi West 3.5 mph - N/A   Clear
9:14 PM 70.9 °F 60.6 °F 70% 29.87 in 10.0 mi Calm Calm - N/A   Clear
9:34 PM 68.5 °F 60.8 °F 76% 29.87 in 10.0 mi North 3.5 mph - N/A   Scattered Clouds
9:54 PM 68.7 °F 60.8 °F 76% 29.88 in 10.0 mi Calm Calm - N/A   Mostly Cloudy
10:14 PM 69.6 °F 60.6 °F 73% 29.87 in 10.0 mi Calm Calm - N/A   Mostly Cloudy
10:34 PM 65.5 °F 61.0 °F 85% 29.87 in 10.0 mi NE 4.6 mph - N/A   Clear
10:54 PM 66.4 °F 60.4 °F 81% 29.86 in 10.0 mi East 6.9 mph - N/A   Clear
11:14 PM 64.6 °F 59.0 °F 82% 29.85 in 10.0 mi East 5.8 mph - N/A   Clear
11:34 PM 63.7 °F 58.6 °F 84% 29.85 in 10.0 mi East 6.9 mph - N/A   Clear
11:54 PM 63.5 °F 58.3 °F 83% 29.86 in 10.0 mi East 4.6 mph - N/A   Clear